GW4396 Weather Reports


Display with metric or nautical units.
time (UTC)temp
F
wind
direction
speed
MPH
gust
MPH
rain 1hr
in
rain 24hr
in
rain mn
in
humidity
%
barometer
mb
20260506233145 80 123 3.0 6.0 0.00 0.00 0.00 79 1008.6
20260506232641 80 68 5.0 7.0 0.00 0.00 0.00 79 1008.4
20260506232137 81 59 6.0 8.0 0.00 0.00 0.00 79 1008.7
20260506231634 81 100 5.0 7.0 0.00 0.00 0.00 79 1008.7
20260506231132 81 95 4.0 6.0 0.00 0.00 0.00 78 1008.6
20260506230629 82 82 3.0 3.0 0.00 0.00 0.00 77 1008.7
20260506230126 82 99 1.0 2.0 0.00 0.00 0.00 76 1008.9
20260506225622 82 86 3.0 3.0 0.00 0.00 0.00 75 1008.5
20260506225119 83 85 3.0 3.0 0.00 0.00 0.00 75 1008.8
20260506224616 83 106 4.0 6.0 0.00 0.00 0.00 74 1008.4
20260506224112 83 121 2.0 3.0 0.00 0.00 0.00 73 1008.6
20260506223608 83 85 3.0 5.0 0.00 0.00 0.00 73 1009.0
20260506223104 83 89 3.0 3.0 0.00 0.00 0.00 74 1008.7
20260506222601 83 87 0.0 0.0 0.00 0.00 0.00 74 1008.8
20260506222058 83 95 3.0 3.0 0.00 0.00 0.00 74 1008.6
20260506221555 83 105 1.0 2.0 0.00 0.00 0.00 74 1008.6
20260506221053 83 85 3.0 5.0 0.00 0.00 0.00 74 1008.8
20260506220549 83 105 2.0 2.0 0.00 0.00 0.00 73 1008.6
20260506220045 83 98 0.0 0.0 0.00 0.00 0.00 74 1008.7
20260506215542 83 111 1.0 1.0 0.00 0.00 0.00 74 1008.4
20260506215038 84 97 2.0 2.0 0.00 0.00 0.00 73 1008.6
20260506214535 83 101 0.0 1.0 0.00 0.00 0.00 73 1008.6
20260506214032 83 91 3.0 5.0 0.00 0.00 0.00 74 1008.8
20260506213530 84 91 0.0 1.0 0.00 0.00 0.00 73 1008.8
20260506213027 84 29 1.0 2.0 0.00 0.00 0.00 73 1008.5
20260506212523 84 106 1.0 1.0 0.00 0.00 0.00 73 1008.8
20260506212018 84 89 0.0 1.0 0.00 0.00 0.00 73 1008.8
20260506211514 84 88 2.0 2.0 0.00 0.00 0.00 73 1008.7
20260506211013 84 131 0.0 0.0 0.00 0.00 0.00 73 1008.9
20260506210509 84 63 1.0 2.0 0.00 0.00 0.00 73 1008.8
20260506210006 84 113 0.0 0.0 0.00 0.00 0.00 73 1009.0
20260506205502 84 92 0.0 0.0 0.00 0.00 0.00 72 1008.9
20260506204957 85 88 0.0 0.0 0.00 0.00 0.00 72 1009.0
20260506204456 85 91 0.0 0.0 0.00 0.00 0.00 70 1009.2
20260506203952 86 85 0.0 0.0 0.00 0.00 0.00 70 1008.9
20260506203450 86 87 0.0 0.0 0.00 0.00 0.00 69 1009.0
20260506202946 86 96 0.0 0.0 0.00 0.00 0.00 69 1009.1
20260506202444 86 67 1.0 2.0 0.00 0.00 0.00 68 1009.2
20260506201940 87 102 0.0 0.0 0.00 0.00 0.00 70 1009.0
20260506201438 87 95 0.0 0.0 0.00 0.00 0.00 71 1009.0
20260506200934 88 90 1.0 2.0 0.00 0.00 0.00 68 1008.9
20260506200430 88 89 0.0 0.0 0.00 0.00 0.00 68 1008.8
20260506195927 88 229 1.0 1.0 0.00 0.00 0.00 65 1009.2
20260506195424 88 10 2.0 3.0 0.00 0.00 0.00 64 1009.5
20260506194921 89 17 4.0 6.0 0.00 0.00 0.00 63 1009.1
20260506194418 89 65 2.0 3.0 0.00 0.00 0.00 64 1009.1
20260506193915 89 102 1.0 2.0 0.00 0.00 0.00 63 1009.2
20260506193412 90 97 0.0 1.0 0.00 0.00 0.00 65 1009.2
20260506192908 91 304 1.0 1.0 0.00 0.00 0.00 62 1009.3
20260506192405 92 77 0.0 0.0 0.00 0.00 0.00 62 1009.5
20260506191902 93 96 1.0 1.0 0.00 0.00 0.00 62 1009.5
20260506191358 94 69 1.0 2.0 0.00 0.00 0.00 59 1009.2
20260506190855 93 9 2.0 5.0 0.00 0.00 0.00 59 1009.3
20260506190352 94 93 1.0 2.0 0.00 0.00 0.00 59 1009.6
20260506185849 92 315 5.0 10.0 0.00 0.00 0.00 60 1009.5
20260506185346 92 90 2.0 2.0 0.00 0.00 0.00 62 1009.7
20260506184843 92 137 2.0 2.0 0.00 0.00 0.00 59 1009.9
20260506184340 92 102 2.0 5.0 0.00 0.00 0.00 61 1009.8
20260506183837 93 108 2.0 3.0 0.00 0.00 0.00 61 1009.8
20260506183332 93 276 1.0 3.0 0.00 0.00 0.00 59 1010.0
20260506182830 92 85 2.0 3.0 0.00 0.00 0.00 59 1009.9
20260506182327 92 122 3.0 5.0 0.00 0.00 0.00 59 1010.2
20260506181824 93 44 1.0 2.0 0.00 0.00 0.00 60 1009.8
20260506181322 92 331 2.0 3.0 0.00 0.00 0.00 58 1010.1
20260506180819 92 331 5.0 7.0 0.00 0.00 0.00 58 1009.9
20260506180315 93 119 4.0 8.0 0.00 0.00 0.00 58 1010.0
20260506175811 93 357 6.0 9.0 0.00 0.00 0.00 58 1010.3
20260506175308 93 78 5.0 7.0 0.00 0.00 0.00 59 1010.1
20260506174806 93 97 3.0 6.0 0.00 0.00 0.00 59 1010.4
20260506174303 93 90 3.0 6.0 0.00 0.00 0.00 60 1010.5
20260506173800 93 119 3.0 3.0 0.00 0.00 0.00 61 1010.6
20260506173257 93 31 2.0 6.0 0.00 0.00 0.00 59 1010.4
20260506172754 93 59 3.0 3.0 0.00 0.00 0.00 60 1010.9
20260506172250 93 158 2.0 2.0 0.00 0.00 0.00 59 1010.9
20260506171748 92 81 0.0 0.0 0.00 0.00 0.00 62 1011.0
20260506171245 93 330 6.0 9.0 0.00 0.00 0.00 59 1010.7
20260506170743 93 112 2.0 3.0 0.00 0.00 0.00 60 1010.8
20260506170239 92 79 0.0 1.0 0.00 0.00 0.00 58 1011.1
20260506165738 92 172 4.0 7.0 0.00 0.00 0.00 60 1011.3
20260506165234 92 12 3.0 6.0 0.00 0.00 0.00 60 1011.4
20260506164731 91 103 3.0 5.0 0.00 0.00 0.00 61 1011.2
20260506164228 91 80 4.0 6.0 0.00 0.00 0.00 61 1011.7
20260506163725 91 55 3.0 5.0 0.00 0.00 0.00 62 1011.6
20260506163220 92 61 2.0 3.0 0.00 0.00 0.00 62 1011.8
20260506162716 92 285 2.0 3.0 0.00 0.00 0.00 61 1011.9
20260506162214 91 77 1.0 1.0 0.00 0.00 0.00 63 1012.0
20260506161711 91 71 3.0 5.0 0.00 0.00 0.00 62 1012.0
20260506161208 91 88 1.0 2.0 0.00 0.00 0.00 64 1012.1
20260506160706 91 49 1.0 1.0 0.00 0.00 0.00 63 1012.3
20260506160202 92 109 4.0 6.0 0.00 0.00 0.00 63 1012.3
20260506155700 91 85 2.0 2.0 0.00 0.00 0.00 62 1012.5
20260506155157 93 84 2.0 3.0 0.00 0.00 0.00 61 1012.5
20260506153259 91 348 1.0 1.0 0.00 0.00 0.00 64 1013.0
20260506152756 92 314 3.0 5.0 0.00 0.00 0.00 62 1013.0
20260506152253 89 69 2.0 3.0 0.00 0.00 0.00 65 1013.0
20260506151752 90 279 2.0 2.0 0.00 0.00 0.00 67 1012.8
20260506151249 89 312 1.0 2.0 0.00 0.00 0.00 65 1013.0
20260506150745 90 54 0.0 1.0 0.00 0.00 0.00 66 1013.5
20260506150243 90 92 2.0 3.0 0.00 0.00 0.00 66 1013.2
20260506145739 90 310 3.0 6.0 0.00 0.00 0.00 64 1013.3
20260506145235 89 306 2.0 3.0 0.00 0.00 0.00 65 1013.4
20260506144733 89 104 3.0 5.0 0.00 0.00 0.00 66 1013.3
20260506144230 89 79 4.0 5.0 0.00 0.00 0.00 66 1013.6
20260506143727 89 142 3.0 5.0 0.00 0.00 0.00 66 1013.6
20260506143225 89 85 6.0 8.0 0.00 0.00 0.00 65 1013.7
20260506142724 88 83 5.0 6.0 0.00 0.00 0.00 68 1014.0
20260506142221 87 99 5.0 6.0 0.00 0.00 0.00 68 1013.8
20260506141719 87 133 3.0 6.0 0.00 0.00 0.00 69 1013.9
20260506141217 86 5 2.0 3.0 0.00 0.00 0.00 69 1014.2
20260506140714 86 103 1.0 2.0 0.00 0.00 0.00 72 1014.1
20260506140211 85 82 2.0 2.0 0.00 0.00 0.00 72 1014.0
20260506135708 85 102 3.0 5.0 0.00 0.00 0.00 73 1014.0
20260506135204 84 89 4.0 6.0 0.00 0.00 0.00 74 1014.4
20260506134701 84 81 3.0 5.0 0.00 0.00 0.00 74 1014.4
20260506134157 83 113 6.0 8.0 0.00 0.00 0.00 74 1014.5
20260506133654 83 86 4.0 5.0 0.00 0.00 0.00 75 1014.5
20260506133151 82 107 9.0 13.0 0.00 0.00 0.00 76 1014.7
20260506132648 82 101 2.0 3.0 0.00 0.00 0.00 77 1014.8
20260506132145 81 94 7.0 9.0 0.00 0.00 0.00 76 1014.6
20260506131643 81 106 2.0 6.0 0.00 0.00 0.00 77 1014.6
20260506131139 80 106 5.0 7.0 0.00 0.00 0.00 78 1014.7
20260506130636 80 105 4.0 5.0 0.00 0.00 0.00 78 1014.7
20260506130133 80 110 3.0 5.0 0.00 0.00 0.00 79 1014.9
20260506125631 80 76 3.0 3.0 0.00 0.00 0.00 79 1014.5
20260506125129 79 110 4.0 6.0 0.00 0.00 0.00 79 1015.0
20260506124626 79 83 3.0 3.0 0.00 0.00 0.00 78 1014.8
20260506124124 79 107 4.0 6.0 0.00 0.00 0.00 78 1014.9
20260506123621 80 95 3.0 3.0 0.00 0.00 0.00 77 1014.9
20260506123120 80 73 6.0 8.0 0.00 0.00 0.00 77 1014.9
20260506122616 80 120 3.0 6.0 0.00 0.00 0.00 77 1014.7
20260506122114 79 84 6.0 6.0 0.00 0.00 0.00 79 1014.9
20260506121612 78 110 3.0 5.0 0.00 0.00 0.00 80 1014.7
20260506121108 78 94 4.0 5.0 0.00 0.00 0.00 81 1014.8
20260506120606 77 107 3.0 3.0 0.00 0.00 0.00 82 1014.6
20260506115601 77 122 4.0 5.0 0.00 0.00 0.00 82 1014.7
20260506115059 76 77 3.0 3.0 0.00 0.00 0.00 83 1015.0
20260506114556 76 88 4.0 5.0 0.00 0.00 0.00 83 1014.9
20260506114054 76 83 3.0 5.0 0.00 0.00 0.00 83 1014.8
20260506113552 76 101 3.0 7.0 0.00 0.00 0.00 83 1014.9
20260506113049 76 90 3.0 5.0 0.00 0.00 0.00 82 1014.8
20260506112545 76 86 4.0 6.0 0.00 0.00 0.00 82 1014.7
20260506112043 77 92 3.0 5.0 0.00 0.00 0.00 82 1014.5
20260506111541 76 87 2.0 3.0 0.00 0.00 0.00 82 1014.7
20260506111038 76 117 1.0 2.0 0.00 0.00 0.00 82 1015.0
20260506110535 76 83 2.0 3.0 0.00 0.00 0.00 83 1014.7
20260506110033 75 96 2.0 3.0 0.00 0.00 0.00 83 1014.7
20260506105528 76 113 2.0 2.0 0.00 0.00 0.00 84 1014.6
20260506105026 75 94 2.0 3.0 0.00 0.00 0.00 83 1014.8
20260506104524 74 105 0.0 1.0 0.00 0.00 0.00 85 1014.5
20260506104022 74 105 0.0 0.0 0.00 0.00 0.00 86 1014.3
20260506103519 74 110 0.0 0.0 0.00 0.00 0.00 87 1014.4
20260506103015 74 95 0.0 1.0 0.00 0.00 0.00 86 1014.3
20260506102514 74 93 2.0 2.0 0.00 0.00 0.00 86 1014.1
20260506102011 74 101 0.0 1.0 0.00 0.00 0.00 87 1014.2
20260506101507 74 103 0.0 0.0 0.00 0.00 0.00 86 1014.0
20260506101004 74 96 2.0 2.0 0.00 0.00 0.00 86 1014.1
20260506100503 74 72 3.0 5.0 0.00 0.00 0.00 86 1014.0
20260506100000 74 100 3.0 3.0 0.00 0.00 0.00 86 1013.9
20260506095459 74 91 4.0 5.0 0.00 0.00 0.00 86 1013.8
20260506094954 74 89 4.0 5.0 0.00 0.00 0.00 86 1013.7
20260506094453 74 103 3.0 3.0 0.00 0.00 0.00 86 1013.5
20260506093950 74 85 4.0 6.0 0.00 0.00 0.00 86 1013.5
20260506093448 74 114 4.0 5.0 0.00 0.00 0.00 86 1013.4
20260506092946 74 91 5.0 7.0 0.00 0.00 0.00 87 1013.4
20260506092443 74 92 3.0 5.0 0.00 0.00 0.00 87 1013.3
20260506091940 74 95 3.0 5.0 0.00 0.00 0.00 87 1013.2
20260506091438 74 86 1.0 2.0 0.00 0.00 0.00 87 1013.0
20260506090935 74 91 2.0 2.0 0.00 0.00 0.00 86 1013.1
20260506090433 74 76 2.0 2.0 0.00 0.00 0.00 86 1013.1
20260506085929 74 70 5.0 9.0 0.00 0.00 0.00 86 1012.8
20260506085426 74 112 2.0 2.0 0.00 0.00 0.00 86 1012.9
20260506084922 74 97 5.0 7.0 0.00 0.00 0.00 86 1012.7
20260506084419 74 64 2.0 2.0 0.00 0.00 0.00 86 1012.7
20260506083910 74 94 3.0 3.0 0.00 0.00 0.00 86 1012.4
20260506083407 75 120 3.0 3.0 0.00 0.00 0.00 86 1012.7
20260506082905 74 97 3.0 3.0 0.00 0.00 0.00 86 1012.5
20260506082402 74 80 3.0 5.0 0.00 0.00 0.00 86 1012.4
20260506081857 75 93 5.0 6.0 0.00 0.00 0.00 86 1012.6
20260506081356 75 105 5.0 6.0 0.00 0.00 0.00 86 1012.4
20260506080853 74 95 4.0 6.0 0.00 0.00 0.00 87 1012.4
20260506080350 74 55 3.0 3.0 0.00 0.00 0.00 87 1012.4
20260506073333 75 98 4.0 5.0 0.00 0.00 0.00 86 1012.3
20260506072830 75 94 5.0 6.0 0.00 0.00 0.00 86 1012.7
20260506072328 75 96 3.0 3.0 0.00 0.00 0.00 86 1012.6
20260506071826 75 99 3.0 5.0 0.00 0.00 0.00 85 1012.6
20260506071323 75 102 4.0 6.0 0.00 0.00 0.00 85 1012.7
20260506070819 75 90 4.0 5.0 0.00 0.00 0.00 84 1012.6
20260506070316 75 102 4.0 5.0 0.00 0.00 0.00 84 1012.5
20260506062253 76 100 5.0 6.0 0.00 0.00 0.00 83 1012.6
20260506061749 76 111 5.0 5.0 0.00 0.00 0.00 84 1012.5
20260506061247 76 93 5.0 7.0 0.00 0.00 0.00 83 1012.6
20260506060745 76 90 2.0 2.0 0.00 0.00 0.00 83 1012.9
20260506060242 76 110 2.0 2.0 0.00 0.00 0.00 83 1012.7
20260506051214 76 110 3.0 3.0 0.00 0.00 0.00 84 1012.7
20260506050712 76 89 4.0 5.0 0.00 0.00 0.00 84 1012.9
20260506050209 76 88 4.0 5.0 0.00 0.00 0.00 84 1012.8
20260506044700 76 105 3.0 3.0 0.00 0.00 0.00 85 1012.6
20260506044157 76 87 2.0 3.0 0.00 0.00 0.00 85 1012.8
20260506043654 76 98 4.0 5.0 0.00 0.00 0.00 86 1012.6
20260506043152 76 108 3.0 3.0 0.00 0.00 0.00 86 1012.7
20260506042651 76 75 3.0 3.0 0.00 0.00 0.00 86 1012.9
20260506042148 76 83 3.0 5.0 0.00 0.00 0.00 86 1012.8
20260506041652 76 104 3.0 3.0 0.00 0.00 0.00 86 1012.7
20260506041143 76 93 3.0 3.0 0.00 0.00 0.00 86 1012.7
20260506040641 76 88 4.0 6.0 0.00 0.00 0.00 86 1013.0
20260506040137 76 89 3.0 5.0 0.00 0.00 0.00 87 1013.0
20260506035635 76 107 4.0 5.0 0.00 0.00 0.00 86 1013.1
20260506035131 76 101 3.0 3.0 0.00 0.00 0.00 87 1013.1
20260506034628 76 103 3.0 5.0 0.00 0.00 0.00 87 1013.0
20260506034125 76 96 3.0 5.0 0.00 0.00 0.00 87 1013.0
20260506033622 76 106 4.0 6.0 0.00 0.00 0.00 87 1013.0
20260506033119 76 84 4.0 5.0 0.00 0.00 0.00 87 1013.1
20260506032617 76 90 3.0 3.0 0.00 0.00 0.00 87 1013.1
20260506032113 76 101 4.0 5.0 0.00 0.00 0.00 88 1013.2
20260506031611 76 95 3.0 3.0 0.00 0.00 0.00 88 1013.3
20260506031107 76 72 5.0 6.0 0.00 0.00 0.00 87 1013.3
20260506030606 76 97 4.0 5.0 0.00 0.00 0.00 88 1013.3
20260506030103 76 106 4.0 5.0 0.00 0.00 0.00 88 1013.7
20260506025600 76 115 3.0 3.0 0.00 0.00 0.00 88 1013.3
20260506025055 75 101 5.0 6.0 0.00 0.00 0.00 88 1013.3
20260506024553 75 96 2.0 2.0 0.00 0.00 0.00 89 1013.5
20260506024049 75 100 3.0 3.0 0.00 0.00 0.00 89 1013.4
20260506023545 76 95 4.0 6.0 0.00 0.00 0.00 88 1013.8
20260506023043 76 93 3.0 3.0 0.00 0.00 0.00 88 1013.6
20260506022540 75 94 4.0 5.0 0.00 0.00 0.00 89 1013.5
20260506022038 75 100 3.0 3.0 0.00 0.00 0.00 89 1013.5
20260506021535 75 75 3.0 5.0 0.00 0.00 0.00 89 1013.6
20260506021032 75 105 3.0 3.0 0.00 0.00 0.00 88 1013.3
20260506020530 76 104 3.0 5.0 0.00 0.00 0.00 88 1013.3
20260506020027 75 99 4.0 5.0 0.00 0.00 0.00 89 1013.6
20260506015524 75 96 3.0 5.0 0.00 0.00 0.00 89 1013.4
20260506015021 75 98 2.0 2.0 0.00 0.00 0.00 89 1013.5
20260506014519 75 93 3.0 3.0 0.00 0.00 0.00 88 1013.6
20260506014014 75 95 2.0 2.0 0.00 0.00 0.00 88 1013.2
20260506013513 75 90 3.0 5.0 0.00 0.00 0.00 88 1013.3
20260506013009 75 99 3.0 3.0 0.00 0.00 0.00 88 1013.5
20260506012505 76 105 2.0 2.0 0.00 0.00 0.00 87 1013.8
20260506012002 76 89 2.0 2.0 0.00 0.00 0.00 88 1013.3
20260506011500 76 99 3.0 3.0 0.00 0.00 0.00 87 1013.5
20260506010956 75 92 2.0 2.0 0.00 0.00 0.00 88 1013.4
20260506010455 75 102 2.0 2.0 0.00 0.00 0.00 88 1013.5
20260506005951 76 98 2.0 2.0 0.00 0.00 0.00 88 1013.6
20260506005449 76 76 2.0 2.0 0.00 0.00 0.00 88 1013.2
20260506004943 76 97 2.0 2.0 0.00 0.00 0.00 87 1013.5
20260506004442 76 89 2.0 2.0 0.00 0.00 0.00 87 1013.5
20260506003938 76 93 3.0 3.0 0.00 0.00 0.00 87 1013.3
20260506003434 76 105 2.0 2.0 0.00 0.00 0.00 88 1013.2
20260506002931 75 101 3.0 3.0 0.00 0.00 0.00 87 1013.4
20260506002427 75 103 1.0 1.0 0.00 0.00 0.00 88 1013.4
20260506001922 75 96 2.0 2.0 0.00 0.00 0.00 87 1013.3
20260506001420 76 96 2.0 2.0 0.00 0.00 0.00 87 1013.0
20260506000917 76 91 2.0 2.0 0.00 0.00 0.00 86 1013.2
20260506000416 76 92 3.0 3.0 0.00 0.00 0.00 87 1013.1
20260505235911 76 98 1.0 2.0 0.00 0.00 0.00 87 1013.2
20260505235409 76 92 0.0 1.0 0.00 0.00 0.00 86 1013.2
20260505234906 77 92 3.0 3.0 0.00 0.00 0.00 86 1012.9
20260505234403 76 83 1.0 2.0 0.00 0.00 0.00 86 1013.3
20260505233900 77 79 2.0 2.0 0.00 0.00 0.00 86 1013.2
20260505233358 77 91 2.0 2.0 0.00 0.00 0.00 85 1013.1